Flag for U.S.A. Weather past 2 weeks in Bismarck, North Dakota, U.S.A.

Now
27 °F

Passing clouds.


Feels Like: 17 °F
Forecast: 17 / 27 °F
Wind: 10 mph from Northwest

Location: Bismarck Municipal Airport

Current Time: Dec 25, 2014 at 8:24:06 AM

Latest Report: Dec 25, 2014 at 7:52 AM


Visibility: 10 mi

Pressure: 29.74 "Hg

Humidity: 81%

Dew point: 22 °F

Location of BismarckLocation

Historic Weather in Bismarck — Graph

°F

Bismarck temperature yesterday

Maximum temperature yesterday: 33 °F (at 3:52 PM)
Minimum temperature yesterday: 23 °F (at 8:52 AM)
Average temperature yesterday: 28 °F

Past Weeks' High & Low Weather Summary

 TemperatureHumidityPressure
High48 °F (Dec 12, 2:52 PM)100% (Dec 11, 9:00 PM)30.46 "Hg (Dec 11, 9:00 PM)
Low11 °F (Dec 17, 5:52 PM)56% (Dec 12, 2:52 PM)29.44 "Hg (Dec 22, 2:02 AM)
Average26 °F87%29.98 "Hg
* Reported Dec 10 6:52 AM — Dec 25 6:52 AM, Bismarck, Weather by CustomWeather, © 2014

Note: Actual official high and low records may vary slightly from our data, if they occured in-between our weather recording intervals... More about our weather records

Advertising

Bismarck weather history for previous 24 hours

 ConditionsComfort  
Time TempWeatherWind HumidityBarometerVisibility
6:52 AM
Dec 25
25 °FPassing clouds.9 mph85%29.71 "Hg10 mi
5:52 AM24 °FClear.7 mph84%29.69 "Hg10 mi
4:52 AM24 °FClear.6 mph88%29.66 "Hg10 mi
3:52 AM25 °FClear.6 mph92%29.64 "Hg10 mi
2:52 AM27 °FPassing clouds.No wind89%29.61 "Hg10 mi
1:52 AM27 °FClear.5 mph89%29.58 "Hg10 mi
12:52 AM28 °FClear.5 mph85%29.57 "Hg10 mi
11:52 PM
Dec 24
29 °FClear.5 mph85%29.54 "Hg10 mi
10:52 PM31 °FOvercast.3 mph92%29.53 "Hg10 mi
9:52 PM30 °FOvercast.3 mph92%29.53 "Hg10 mi
8:52 PM29 °FOvercast.No wind93%29.53 "Hg10 mi
7:52 PM29 °FPassing clouds.No wind93%29.53 "Hg10 mi
6:52 PM30 °FOvercast.No wind92%29.52 "Hg10 mi
5:52 PM31 °FOvercast.3 mph89%29.53 "Hg10 mi
4:52 PM33 °FOvercast.No wind75%29.52 "Hg10 mi
3:52 PM33 °FLight rain. Mostly cloudy.6 mph72%29.54 "Hg10 mi
2:52 PM32 °FPartly sunny.9 mph69%29.55 "Hg10 mi
1:52 PM31 °FOvercast.13 mph69%29.58 "Hg10 mi
12:52 PM29 °FOvercast.12 mph72%29.62 "Hg10 mi
11:52 AM28 °FOvercast.6 mph75%29.68 "Hg10 mi
10:52 AM25 °FMostly cloudy.8 mph81%29.73 "Hg10 mi
9:52 AM24 °FMostly cloudy.7 mph88%29.78 "Hg10 mi
8:52 AM23 °FIce fog.7 mph92%29.81 "Hg5 mi
Weather by CustomWeather, © 2014

See weather overviewHow to use our weather pages